Previsão horária em Almalo

Hoje, 25 Junho, Sexta-feira

Tempo Temperatura Precipitação Vento Pressão Humidade
00:00 +26°C° 0 mm 2 m/s 757 mmHg 54%
01:00 +26°C° 0 mm 2 m/s 757 mmHg 55%
02:00 +25°C° 0 mm 2 m/s 756 mmHg 57%
03:00 +25°C° 0 mm 2 m/s 756 mmHg 59%
04:00 +26°C° 0 mm 1 m/s 756 mmHg 56%
05:00 +27°C° 0 mm 1 m/s 756 mmHg 53%
06:00 +28°C° 0 mm 1 m/s 756 mmHg 49%
07:00 +30°C° 0 mm 1 m/s 756 mmHg 43%
08:00 +32°C° 0 mm 1 m/s 756 mmHg 36%
09:00 +35°C° 0 mm 2 m/s 756 mmHg 29%
10:00 +36°C° 0 mm 2 m/s 755 mmHg 28%
11:00 +36°C° 0 mm 3 m/s 755 mmHg 27%
12:00 +37°C° 0 mm 4 m/s 755 mmHg 27%
13:00 +37°C° 0 mm 4 m/s 755 mmHg 28%
14:00 +37°C° 0 mm 5 m/s 755 mmHg 29%
15:00 +37°C° 0 mm 5 m/s 754 mmHg 30%
16:00 +36°C° 0 mm 5 m/s 754 mmHg 33%
17:00 +35°C° 0 mm 5 m/s 754 mmHg 37%
18:00 +34°C° 0 mm 5 m/s 754 mmHg 40%
19:00 +32°C° 0 mm 4 m/s 754 mmHg 43%
20:00 +30°C° 0 mm 3 m/s 754 mmHg 47%
21:00 +29°C° 0 mm 3 m/s 754 mmHg 50%
22:00 +28°C° 0 mm 2 m/s 754 mmHg 53%
23:00 +27°C° 0 mm 2 m/s 754 mmHg 55%

Amanhã, 26 Junho, Sábado

Tempo Temperatura Precipitação Vento Pressão Humidade
00:00 +27°C° 0 mm 1 m/s 755 mmHg 58%
01:00 +26°C° 0 mm 1 m/s 754 mmHg 59%
02:00 +26°C° 0 mm 1 m/s 754 mmHg 60%
03:00 +26°C° 0 mm 1 m/s 754 mmHg 61%
04:00 +27°C° 0 mm 1 m/s 754 mmHg 59%
05:00 +28°C° 0 mm 2 m/s 754 mmHg 57%
06:00 +29°C° 0 mm 2 m/s 754 mmHg 55%
07:00 +31°C° 0 mm 2 m/s 754 mmHg 51%
08:00 +32°C° 0 mm 2 m/s 754 mmHg 46%
09:00 +35°C° 0 mm 3 m/s 754 mmHg 41%
10:00 +37°C° 0 mm 3 m/s 753 mmHg 38%
11:00 +38°C° 0 mm 3 m/s 753 mmHg 36%
12:00 +39°C° 0 mm 3 m/s 753 mmHg 33%
13:00 +39°C° 0 mm 3 m/s 752 mmHg 33%
14:00 +39°C° 0 mm 3 m/s 752 mmHg 33%
15:00 +40°C° 0 mm 4 m/s 752 mmHg 33%
16:00 +38°C° 0 mm 4 m/s 752 mmHg 36%
17:00 +37°C° 0 mm 3 m/s 752 mmHg 38%
18:00 +36°C° 0 mm 3 m/s 752 mmHg 41%
19:00 +34°C° 0 mm 3 m/s 752 mmHg 47%
20:00 +31°C° 0 mm 2 m/s 752 mmHg 53%
21:00 +29°C° 0 mm 1 m/s 753 mmHg 59%
22:00 +29°C° 0 mm 1 m/s 753 mmHg 59%
23:00 +28°C° 0 mm 1 m/s 753 mmHg 59%

Depois de amanhã, 27 Junho, Domingo

Tempo Temperatura Precipitação Vento Pressão Humidade
00:00 +28°C° 0 mm 2 m/s 753 mmHg 59%
01:00 +28°C° 0 mm 2 m/s 753 mmHg 58%
02:00 +28°C° 0 mm 2 m/s 753 mmHg 58%
03:00 +28°C° 0 mm 2 m/s 753 mmHg 57%
04:00 +29°C° 0 mm 2 m/s 754 mmHg 55%
05:00 +30°C° 0 mm 1 m/s 754 mmHg 53%
06:00 +31°C° 0 mm 1 m/s 754 mmHg 51%
07:00 +32°C° 0 mm 1 m/s 754 mmHg 48%
08:00 +34°C° 0 mm 1 m/s 754 mmHg 45%
09:00 +36°C° 0 mm 2 m/s 754 mmHg 41%
10:00 +37°C° 0 mm 2 m/s 754 mmHg 40%
11:00 +38°C° 0 mm 2 m/s 754 mmHg 38%
12:00 +38°C° 0 mm 2 m/s 754 mmHg 36%
13:00 +39°C° 0 mm 2 m/s 754 mmHg 35%
14:00 +39°C° 0 mm 3 m/s 754 mmHg 34%
15:00 +40°C° 0 mm 3 m/s 753 mmHg 33%
16:00 +39°C° 0 mm 3 m/s 753 mmHg 36%
17:00 +38°C° 0 mm 4 m/s 753 mmHg 39%
18:00 +36°C° 0 mm 4 m/s 753 mmHg 42%
19:00 +35°C° 0 mm 3 m/s 754 mmHg 45%
20:00 +33°C° 0 mm 3 m/s 754 mmHg 47%
21:00 +31°C° 0 mm 2 m/s 754 mmHg 50%
22:00 +31°C° 0 mm 2 m/s 754 mmHg 50%
23:00 +30°C° 0 mm 2 m/s 754 mmHg 51%

28 Junho, Segunda-feira

Tempo Temperatura Precipitação Vento Pressão Humidade
00:00 +30°C° 0 mm 2 m/s 754 mmHg 51%
01:00 +29°C° 0.1 mm 3 m/s 755 mmHg 56%
02:00 +29°C° 0.1 mm 5 m/s 755 mmHg 61%
03:00 +28°C° 0.1 mm 6 m/s 755 mmHg 66%
04:00 +29°C° 0 mm 6 m/s 755 mmHg 64%
05:00 +29°C° 0 mm 5 m/s 755 mmHg 62%
06:00 +30°C° 0 mm 4 m/s 756 mmHg 60%
07:00 +32°C° 0 mm 5 m/s 756 mmHg 57%
08:00 +33°C° 0 mm 6 m/s 756 mmHg 53%
09:00 +34°C° 0 mm 6 m/s 756 mmHg 50%
10:00 +35°C° 0 mm 6 m/s 756 mmHg 46%
11:00 +37°C° 0 mm 5 m/s 756 mmHg 42%
12:00 +39°C° 0 mm 5 m/s 756 mmHg 38%
13:00 +38°C° 0 mm 4 m/s 755 mmHg 38%
14:00 +38°C° 0 mm 4 m/s 755 mmHg 37%
15:00 +38°C° 0 mm 3 m/s 755 mmHg 37%
16:00 +36°C° 0.5 mm 4 m/s 755 mmHg 41%
17:00 +34°C° 0.5 mm 5 m/s 755 mmHg 46%
18:00 +30°C° 0.5 mm 5 m/s 755 mmHg 50%
19:00 +30°C° 0.3 mm 5 m/s 756 mmHg 53%
20:00 +29°C° 0.3 mm 4 m/s 756 mmHg 56%
21:00 +28°C° 0.3 mm 3 m/s 756 mmHg 59%
22:00 +28°C° 0 mm 3 m/s 756 mmHg 57%
23:00 +28°C° 0 mm 3 m/s 756 mmHg 55%

29 Junho, Terça-feira

Tempo Temperatura Precipitação Vento Pressão Humidade
00:00 +28°C° 0 mm 3 m/s 755 mmHg 54%
01:00 +28°C° 0 mm 3 m/s 755 mmHg 55%
02:00 +28°C° 0 mm 3 m/s 755 mmHg 57%
03:00 +27°C° 0 mm 3 m/s 755 mmHg 59%
04:00 +28°C° 0 mm 4 m/s 755 mmHg 61%
05:00 +28°C° 0 mm 5 m/s 756 mmHg 63%
06:00 +29°C° 0 mm 6 m/s 756 mmHg 64%
07:00 +30°C° 0 mm 6 m/s 756 mmHg 60%
08:00 +32°C° 0 mm 6 m/s 757 mmHg 56%
09:00 +33°C° 0 mm 7 m/s 757 mmHg 53%
10:00 +34°C° 0 mm 5 m/s 757 mmHg 50%
11:00 +35°C° 0 mm 4 m/s 756 mmHg 47%
12:00 +36°C° 0 mm 3 m/s 756 mmHg 44%
13:00 +36°C° 0.1 mm 4 m/s 756 mmHg 43%
14:00 +37°C° 0.1 mm 4 m/s 755 mmHg 42%
15:00 +37°C° 0.1 mm 4 m/s 755 mmHg 41%
16:00 +35°C° 0.5 mm 4 m/s 755 mmHg 47%
17:00 +33°C° 0.5 mm 3 m/s 756 mmHg 53%
18:00 +30°C° 0.5 mm 3 m/s 756 mmHg 58%
19:00 +29°C° 0 mm 2 m/s 756 mmHg 58%
20:00 +29°C° 0 mm 2 m/s 756 mmHg 57%
21:00 +29°C° 0 mm 2 m/s 756 mmHg 57%
22:00 +29°C° 0.1 mm 2 m/s 756 mmHg 61%
23:00 +28°C° 0.1 mm 3 m/s 756 mmHg 65%

30 Junho, Quarta-feira

Tempo Temperatura Precipitação Vento Pressão Humidade
00:00 +27°C° 0.1 mm 3 m/s 756 mmHg 69%
01:00 +27°C° 0 mm 3 m/s 756 mmHg 72%
02:00 +26°C° 0 mm 3 m/s 756 mmHg 75%
03:00 +26°C° 0 mm 3 m/s 756 mmHg 77%
04:00 +27°C° 0 mm 3 m/s 756 mmHg 74%
05:00 +27°C° 0 mm 3 m/s 757 mmHg 72%
06:00 +28°C° 0 mm 4 m/s 757 mmHg 69%
07:00 +29°C° 0 mm 4 m/s 757 mmHg 63%
08:00 +32°C° 0 mm 4 m/s 757 mmHg 58%
09:00 +33°C° 0 mm 5 m/s 757 mmHg 52%
10:00 +34°C° 0 mm 5 m/s 757 mmHg 50%
11:00 +35°C° 0 mm 5 m/s 757 mmHg 47%
12:00 +36°C° 0 mm 5 m/s 757 mmHg 45%
13:00 +36°C° 0.1 mm 4 m/s 757 mmHg 44%
14:00 +35°C° 0.1 mm 4 m/s 757 mmHg 44%
15:00 +35°C° 0.1 mm 4 m/s 757 mmHg 44%
16:00 +34°C° 0.2 mm 3 m/s 757 mmHg 47%
17:00 +34°C° 0.2 mm 2 m/s 757 mmHg 49%
18:00 +32°C° 0.2 mm 1 m/s 757 mmHg 52%
19:00 +31°C° 0.1 mm 1 m/s 757 mmHg 57%
20:00 +29°C° 0.1 mm 1 m/s 757 mmHg 61%
21:00 +28°C° 0.1 mm 1 m/s 758 mmHg 66%
22:00 +28°C° 0.5 mm 2 m/s 758 mmHg 69%
23:00 +28°C° 0.5 mm 2 m/s 758 mmHg 73%
Mostrar mais